パンスターズ彗星

C/2017 Y1 ( PanSTARRS )

English version
Home page
Updated on December 31, 2017

---------------------------------------------------------------------

・ プロフィール

発見日 2017年12月24日
発見光度 20.6等
発見者 Pan-STARRS 1 telescope (Haleakala)

・ 軌道要素

T 2017 Sept. 15.70864 TT                                MPCW
q   3.7897611            (2000.0)            P               Q
                   Peri.  137.91868     -0.15035159     -0.73513060
                   Node   307.17585     +0.52883989     +0.50513485
e   1.0            Incl.   56.06155     +0.83529801     -0.45213027
From 41 observations 2017 Dec. 24-30.

・ 光度変化

        m1 = 11.0 + 5 logΔ + 10.0 log r

---------------------------------------------------------------------

軌道要素はM.P.E.C. 2017-Y159に掲載されたものです。
光度グラフはComet for Windowsで作成したものです。

---------------------------------------------------------------------

Copyright(C) Seiichi Yoshida (comet@aerith.net). All rights reserved.